Time,TemperatureF,DewpointF,PressureIn,WindDirection,WindDirectionDegrees,WindSpeedMPH,WindSpeedGustMPH,Humidity,HourlyPrecipIn,Conditions,Clouds,dailyrainin,SoftwareType,DateUTC
2013-01-19 00:03:00,31.0,-99.9,-100.00,NNE,22,0.0,0.0,-999,-99.99,,,-99.99,,2013-01-19 06:03:00,
2013-01-19 00:12:00,31.0,-99.9,-100.00,NNE,22,0.0,0.0,-999,-99.99,,,-99.99,,2013-01-19 06:12:00,
2013-01-19 00:23:00,31.0,-99.9,-100.00,NNE,22,0.0,0.0,-999,-99.99,,,-99.99,,2013-01-19 06:23:00,
2013-01-19 00:33:00,31.0,-99.9,-100.00,NNE,22,0.0,0.0,-999,-99.99,,,-99.99,,2013-01-19 06:33:00,
2013-01-19 00:43:00,31.0,-99.9,-100.00,NNE,22,0.0,0.0,-999,-99.99,,,-99.99,,2013-01-19 06:43:00,
2013-01-19 00:53:00,30.0,-99.9,-100.00,NNE,22,0.0,0.0,-999,-99.99,,,-99.99,,2013-01-19 06:53:00,
2013-01-19 01:02:00,30.0,-99.9,-100.00,NNE,22,0.0,0.0,-999,-99.99,,,-99.99,,2013-01-19 07:02:00,
2013-01-19 01:12:00,30.0,-99.9,-100.00,NNE,22,0.0,0.0,-999,-99.99,,,-99.99,,2013-01-19 07:12:00,
2013-01-19 01:23:00,30.0,-99.9,-100.00,NNE,22,0.0,0.0,-999,-99.99,,,-99.99,,2013-01-19 07:23:00,
2013-01-19 01:33:00,30.0,-99.9,-100.00,NNE,22,0.0,0.0,-999,-99.99,,,-99.99,,2013-01-19 07:33:00,
2013-01-19 01:43:00,30.0,-99.9,-100.00,NNE,22,0.0,0.0,-999,-99.99,,,-99.99,,2013-01-19 07:43:00,
2013-01-19 01:53:00,30.0,-99.9,-100.00,NNE,22,0.0,0.0,-999,-99.99,,,-99.99,,2013-01-19 07:53:00,
2013-01-19 02:03:00,30.0,-99.9,-100.00,NNE,22,0.0,0.0,-999,-99.99,,,-99.99,,2013-01-19 08:03:00,
2013-01-19 02:12:00,30.0,-99.9,-100.00,NNE,22,0.0,0.0,-999,-99.99,,,-99.99,,2013-01-19 08:12:00,
2013-01-19 02:23:00,30.0,-99.9,-100.00,NNE,22,0.0,0.0,-999,-99.99,,,-99.99,,2013-01-19 08:23:00,
2013-01-19 02:33:00,30.0,-99.9,-100.00,NNE,22,0.0,0.0,-999,-99.99,,,-99.99,,2013-01-19 08:33:00,
2013-01-19 02:43:00,30.0,-99.9,-100.00,NNE,22,0.0,0.0,-999,-99.99,,,-99.99,,2013-01-19 08:43:00,
2013-01-19 02:53:00,30.0,-99.9,-100.00,NNE,22,0.0,0.0,-999,-99.99,,,-99.99,,2013-01-19 08:53:00,
2013-01-19 03:03:00,30.0,-99.9,-100.00,NNE,22,0.0,0.0,-999,-99.99,,,-99.99,,2013-01-19 09:03:00,
2013-01-19 03:12:00,30.0,-99.9,-100.00,NNE,22,0.0,0.0,-999,-99.99,,,-99.99,,2013-01-19 09:12:00,
2013-01-19 03:23:00,29.0,-99.9,-100.00,NNE,22,0.0,0.0,-999,-99.99,,,-99.99,,2013-01-19 09:23:00,
2013-01-19 03:33:00,29.0,-99.9,-100.00,NNE,22,0.0,0.0,-999,-99.99,,,-99.99,,2013-01-19 09:33:00,
2013-01-19 03:43:00,29.0,-99.9,-100.00,NNE,22,0.0,0.0,-999,-99.99,,,-99.99,,2013-01-19 09:43:00,
2013-01-19 03:53:00,29.0,-99.9,-100.00,NNE,22,0.0,0.0,-999,-99.99,,,-99.99,,2013-01-19 09:53:00,
2013-01-19 04:03:00,30.0,-99.9,-100.00,NNE,22,0.0,0.0,-999,-99.99,,,-99.99,,2013-01-19 10:03:00,
2013-01-19 04:13:00,30.0,-99.9,-100.00,NNE,22,0.0,0.0,-999,-99.99,,,-99.99,,2013-01-19 10:13:00,
2013-01-19 04:23:00,29.0,-99.9,-100.00,NNE,22,0.0,0.0,-999,-99.99,,,-99.99,,2013-01-19 10:23:00,
2013-01-19 04:33:00,30.0,-99.9,-100.00,NNE,22,0.0,0.0,-999,-99.99,,,-99.99,,2013-01-19 10:33:00,
2013-01-19 04:43:00,30.0,-99.9,-100.00,NNE,22,0.0,0.0,-999,-99.99,,,-99.99,,2013-01-19 10:43:00,
2013-01-19 04:53:00,29.0,-99.9,-100.00,NNE,22,0.0,0.0,-999,-99.99,,,-99.99,,2013-01-19 10:53:00,
2013-01-19 05:03:00,29.0,-99.9,-100.00,NNE,22,0.0,0.0,-999,-99.99,,,-99.99,,2013-01-19 11:03:00,
2013-01-19 05:13:00,29.0,-99.9,-100.00,NNE,22,0.0,0.0,-999,-99.99,,,-99.99,,2013-01-19 11:13:00,
2013-01-19 06:48:00,30.0,-99.9,-100.00,NNE,22,0.0,0.0,-999,-99.99,,,-99.99,,2013-01-19 12:48:00,
2013-01-19 06:49:00,31.0,-99.9,-100.00,NNE,22,0.0,0.0,-999,-99.99,,,-99.99,,2013-01-19 12:49:00,
2013-01-19 07:03:00,31.0,-99.9,-100.00,NNE,22,0.0,0.0,-999,-99.99,,,-99.99,,2013-01-19 13:03:00,
2013-01-19 07:13:00,31.0,-99.9,-100.00,NNE,22,0.0,0.0,-999,-99.99,,,-99.99,,2013-01-19 13:13:00,
2013-01-19 07:23:00,32.0,-99.9,-100.00,NNE,22,0.0,0.0,-999,-99.99,,,-99.99,,2013-01-19 13:23:00,
2013-01-19 07:34:00,31.0,-99.9,-100.00,NNE,22,0.0,0.0,-999,-99.99,,,-99.99,,2013-01-19 13:34:00,
2013-01-19 07:43:00,31.0,-99.9,-100.00,NNE,22,0.0,0.0,-999,-99.99,,,-99.99,,2013-01-19 13:43:00,
2013-01-19 07:54:00,32.0,-99.9,-100.00,NNE,22,0.0,0.0,-999,-99.99,,,-99.99,,2013-01-19 13:54:00,
2013-01-19 08:03:00,33.0,-99.9,-100.00,NNE,22,0.0,0.0,-999,-99.99,,,-99.99,,2013-01-19 14:03:00,
2013-01-19 08:13:00,33.0,-99.9,-100.00,NNE,22,0.0,0.0,-999,-99.99,,,-99.99,,2013-01-19 14:13:00,
2013-01-19 08:23:00,34.0,-99.9,-100.00,NNE,22,0.0,0.0,-999,-99.99,,,-99.99,,2013-01-19 14:23:00,
2013-01-19 08:34:00,35.0,-99.9,-100.00,NNE,22,0.0,0.0,-999,-99.99,,,-99.99,,2013-01-19 14:34:00,
2013-01-19 08:44:00,35.0,-99.9,-100.00,NNE,22,0.0,0.0,-999,-99.99,,,-99.99,,2013-01-19 14:44:00,
2013-01-19 08:54:00,37.0,-99.9,-100.00,NNE,22,0.0,0.0,-999,-99.99,,,-99.99,,2013-01-19 14:54:00,
2013-01-19 09:04:00,41.0,-99.9,-100.00,NNE,22,0.0,0.0,-999,-99.99,,,-99.99,,2013-01-19 15:04:00,
2013-01-19 09:13:00,41.0,-99.9,-100.00,NNE,22,0.0,0.0,-999,-99.99,,,-99.99,,2013-01-19 15:13:00,
2013-01-19 09:23:00,41.0,-99.9,-100.00,NNE,22,0.0,0.0,-999,-99.99,,,-99.99,,2013-01-19 15:23:00,
2013-01-19 09:34:00,44.0,-99.9,-100.00,NNE,22,0.0,0.0,-999,-99.99,,,-99.99,,2013-01-19 15:34:00,
2013-01-19 09:43:00,44.0,-99.9,-100.00,NNE,22,0.0,0.0,-999,-99.99,,,-99.99,,2013-01-19 15:43:00,
2013-01-19 09:54:00,46.0,-99.9,-100.00,NNE,22,0.0,0.0,-999,-99.99,,,-99.99,,2013-01-19 15:54:00,
2013-01-19 10:04:00,49.0,-99.9,-100.00,NNE,22,0.0,0.0,-999,-99.99,,,-99.99,,2013-01-19 16:04:00,
2013-01-19 10:13:00,49.0,-99.9,-100.00,NNE,22,0.0,0.0,-999,-99.99,,,-99.99,,2013-01-19 16:13:00,
2013-01-19 10:23:00,51.0,-99.9,-100.00,NNE,22,0.0,0.0,-999,-99.99,,,-99.99,,2013-01-19 16:23:00,
2013-01-19 10:34:00,53.0,-99.9,-100.00,East,98,0.0,0.0,-999,-99.99,,,-99.99,,2013-01-19 16:34:00,
2013-01-19 10:43:00,53.0,-99.9,-100.00,East,98,0.0,0.0,-999,-99.99,,,-99.99,,2013-01-19 16:43:00,
2013-01-19 10:54:00,55.0,-99.9,-100.00,NNE,21,0.0,1.0,-999,-99.99,,,-99.99,,2013-01-19 16:54:00,
2013-01-19 11:03:00,56.0,-99.9,-100.00,NE,56,0.0,2.0,-999,-99.99,,,-99.99,,2013-01-19 17:03:00,
2013-01-19 11:23:00,56.0,-99.9,-100.00,NE,56,0.0,2.0,-999,-99.99,,,-99.99,,2013-01-19 17:23:00,
2013-01-19 11:29:00,56.0,-99.9,-100.00,NE,56,0.0,2.0,-999,-99.99,,,-99.99,,2013-01-19 17:29:00,
2013-01-19 11:39:00,58.0,-99.9,-100.00,NE,56,0.0,0.0,-999,-99.99,,,-99.99,,2013-01-19 17:39:00,
2013-01-19 11:50:00,58.0,-99.9,-100.00,NE,56,0.0,0.0,-999,-99.99,,,-99.99,,2013-01-19 17:50:00,
2013-01-19 11:56:00,59.0,-99.9,-100.00,NE,40,1.0,2.0,-999,-99.99,,,-99.99,,2013-01-19 17:56:00,
2013-01-19 12:13:00,59.0,-99.9,-100.00,East,85,1.0,2.0,-999,-99.99,,,-99.99,,2013-01-19 18:13:00,
2013-01-19 12:30:00,59.0,-99.9,-100.00,East,85,1.0,2.0,-999,-99.99,,,-99.99,,2013-01-19 18:30:00,
2013-01-19 12:39:00,61.0,-99.9,-100.00,NE,45,0.0,2.0,-999,-99.99,,,-99.99,,2013-01-19 18:39:00,
2013-01-19 12:49:00,61.0,-99.9,-100.00,NE,45,0.0,2.0,-999,-99.99,,,-99.99,,2013-01-19 18:49:00,
2013-01-19 13:05:00,61.0,-99.9,-100.00,NE,45,0.0,2.0,-999,-99.99,,,-99.99,,2013-01-19 19:05:00,
2013-01-19 13:34:00,60.0,-99.9,-100.00,NE,46,1.0,1.0,-999,-99.99,,,-99.99,,2013-01-19 19:34:00,
2013-01-19 13:40:00,60.0,-99.9,-100.00,NW,317,0.0,3.0,-999,-99.99,,,-99.99,,2013-01-19 19:40:00,
2013-01-19 13:50:00,60.0,-99.9,-100.00,NW,317,0.0,3.0,-999,-99.99,,,-99.99,,2013-01-19 19:50:00,
2013-01-19 13:59:00,60.0,-99.9,-100.00,NE,37,0.0,0.0,-999,-99.99,,,-99.99,,2013-01-19 19:59:00,
2013-01-19 14:14:00,60.0,-99.9,-100.00,NE,37,0.0,0.0,-999,-99.99,,,-99.99,,2013-01-19 20:14:00,
2013-01-19 14:21:00,60.0,-99.9,-100.00,NE,37,0.0,0.0,-999,-99.99,,,-99.99,,2013-01-19 20:21:00,
2013-01-19 14:28:00,60.0,-99.9,-100.00,NNW,344,0.0,2.0,-999,-99.99,,,-99.99,,2013-01-19 20:28:00,
2013-01-19 14:40:00,60.0,-99.9,-100.00,NE,36,0.0,0.0,-999,-99.99,,,-99.99,,2013-01-19 20:40:00,
2013-01-19 14:51:00,60.0,-99.9,-100.00,NE,36,0.0,0.0,-999,-99.99,,,-99.99,,2013-01-19 20:51:00,
2013-01-19 15:00:00,60.0,-99.9,-100.00,NE,36,0.0,0.0,-999,-99.99,,,-99.99,,2013-01-19 21:00:00,
2013-01-19 15:15:00,60.0,-99.9,-100.00,NE,36,0.0,0.0,-999,-99.99,,,-99.99,,2013-01-19 21:15:00,
2013-01-19 15:31:00,60.0,-99.9,-100.00,East,80,0.0,0.0,-999,-99.99,,,-99.99,,2013-01-19 21:31:00,
2013-01-19 15:49:00,60.0,-99.9,-100.00,East,80,0.0,0.0,-999,-99.99,,,-99.99,,2013-01-19 21:49:00,
2013-01-19 16:04:00,60.0,-99.9,-100.00,East,80,0.0,0.0,-999,-99.99,,,-99.99,,2013-01-19 22:04:00,
2013-01-19 16:17:00,60.0,-99.9,-100.00,East,80,0.0,0.0,-999,-99.99,,,-99.99,,2013-01-19 22:17:00,
2013-01-19 16:29:00,60.0,-99.9,-100.00,East,80,0.0,0.0,-999,-99.99,,,-99.99,,2013-01-19 22:29:00,
2013-01-19 16:37:00,59.0,-99.9,-100.00,East,80,0.0,0.0,-999,-99.99,,,-99.99,,2013-01-19 22:37:00,
2013-01-19 16:50:00,59.0,-99.9,-100.00,East,80,0.0,0.0,-999,-99.99,,,-99.99,,2013-01-19 22:50:00,
2013-01-19 16:59:00,59.0,-99.9,-100.00,East,80,0.0,0.0,-999,-99.99,,,-99.99,,2013-01-19 22:59:00,
2013-01-19 17:14:00,58.0,-99.9,-100.00,East,80,0.0,0.0,-999,-99.99,,,-99.99,,2013-01-19 23:14:00,
2013-01-19 17:35:00,55.0,-99.9,-100.00,East,80,0.0,0.0,-999,-99.99,,,-99.99,,2013-01-19 23:35:00,
2013-01-19 17:54:00,55.0,-99.9,-100.00,East,80,0.0,0.0,-999,-99.99,,,-99.99,,2013-01-19 23:54:00,
2013-01-19 18:08:00,53.0,-99.9,-100.00,East,80,0.0,0.0,-999,-99.99,,,-99.99,,2013-01-20 00:08:00,
2013-01-19 18:18:00,52.0,-99.9,-100.00,East,80,0.0,0.0,-999,-99.99,,,-99.99,,2013-01-20 00:18:00,
2013-01-19 18:27:00,52.0,-99.9,-100.00,East,80,0.0,0.0,-999,-99.99,,,-99.99,,2013-01-20 00:27:00,
2013-01-19 18:39:00,50.0,-99.9,-100.00,East,80,0.0,0.0,-999,-99.99,,,-99.99,,2013-01-20 00:39:00,
2013-01-19 18:59:00,49.0,-99.9,-100.00,East,80,0.0,0.0,-999,-99.99,,,-99.99,,2013-01-20 00:59:00,
2013-01-19 19:05:00,49.0,-99.9,-100.00,East,80,0.0,0.0,-999,-99.99,,,-99.99,,2013-01-20 01:05:00,
2013-01-19 19:22:00,49.0,-99.9,-100.00,East,80,0.0,0.0,-999,-99.99,,,-99.99,,2013-01-20 01:22:00,
2013-01-19 19:28:00,48.0,-99.9,-100.00,East,80,0.0,0.0,-999,-99.99,,,-99.99,,2013-01-20 01:28:00,
2013-01-19 19:40:00,46.0,-99.9,-100.00,East,80,0.0,0.0,-999,-99.99,,,-99.99,,2013-01-20 01:40:00,
2013-01-19 19:54:00,46.0,-99.9,-100.00,East,80,0.0,0.0,-999,-99.99,,,-99.99,,2013-01-20 01:54:00,
2013-01-19 20:06:00,46.0,-99.9,-100.00,East,80,0.0,0.0,-999,-99.99,,,-99.99,,2013-01-20 02:06:00,
2013-01-19 20:16:00,46.0,-99.9,-100.00,East,80,0.0,0.0,-999,-99.99,,,-99.99,,2013-01-20 02:16:00,
2013-01-19 20:28:00,44.0,-99.9,-100.00,East,80,0.0,0.0,-999,-99.99,,,-99.99,,2013-01-20 02:28:00,
2013-01-19 20:39:00,44.0,-99.9,-100.00,East,80,0.0,0.0,-999,-99.99,,,-99.99,,2013-01-20 02:39:00,
2013-01-19 20:47:00,44.0,-99.9,-100.00,East,80,0.0,0.0,-999,-99.99,,,-99.99,,2013-01-20 02:47:00,
2013-01-19 21:00:00,43.0,-99.9,-100.00,East,80,0.0,0.0,-999,-99.99,,,-99.99,,2013-01-20 03:00:00,
2013-01-19 21:09:00,42.0,-99.9,-100.00,East,80,0.0,0.0,-999,-99.99,,,-99.99,,2013-01-20 03:09:00,
2013-01-19 21:28:00,42.0,-99.9,-100.00,East,80,0.0,0.0,-999,-99.99,,,-99.99,,2013-01-20 03:28:00,
2013-01-19 21:40:00,42.0,-99.9,-100.00,East,80,0.0,0.0,-999,-99.99,,,-99.99,,2013-01-20 03:40:00,
2013-01-19 21:48:00,42.0,-99.9,-100.00,East,80,0.0,0.0,-999,-99.99,,,-99.99,,2013-01-20 03:48:00,
2013-01-19 21:59:00,41.0,-99.9,-100.00,East,80,0.0,0.0,-999,-99.99,,,-99.99,,2013-01-20 03:59:00,
2013-01-19 22:05:00,40.0,-99.9,-100.00,East,80,0.0,0.0,-999,-99.99,,,-99.99,,2013-01-20 04:05:00,
2013-01-19 22:28:00,40.0,-99.9,-100.00,East,80,0.0,0.0,-999,-99.99,,,-99.99,,2013-01-20 04:28:00,
2013-01-19 22:39:00,40.0,-99.9,-100.00,East,80,0.0,0.0,-999,-99.99,,,-99.99,,2013-01-20 04:39:00,
2013-01-19 22:46:00,40.0,-99.9,-100.00,East,80,0.0,0.0,-999,-99.99,,,-99.99,,2013-01-20 04:46:00,
2013-01-19 23:01:00,39.0,-99.9,-100.00,East,80,0.0,0.0,-999,-99.99,,,-99.99,,2013-01-20 05:01:00,
2013-01-19 23:04:00,39.0,-99.9,-100.00,East,80,0.0,0.0,-999,-99.99,,,-99.99,,2013-01-20 05:04:00,
2013-01-19 23:12:00,39.0,-99.9,-100.00,East,80,0.0,0.0,-999,-99.99,,,-99.99,,2013-01-20 05:12:00,
2013-01-19 23:23:00,38.0,-99.9,-100.00,East,80,0.0,0.0,-999,-99.99,,,-99.99,,2013-01-20 05:23:00,
2013-01-19 23:33:00,38.0,-99.9,-100.00,East,80,0.0,0.0,-999,-99.99,,,-99.99,,2013-01-20 05:33:00,
2013-01-19 23:43:00,38.0,-99.9,-100.00,East,80,0.0,0.0,-999,-99.99,,,-99.99,,2013-01-20 05:43:00,
2013-01-19 23:53:00,38.0,-99.9,-100.00,East,80,0.0,0.0,-999,-99.99,,,-99.99,,2013-01-20 05:53:00,